Location: Cardiff
(53.7833°N, 113.6000°W)
Time: 05:29:56
(UTC+00:00)

SO-50 - Pass Details

Date: 08 December 2023
Orbit: 608 x 660 km, 64.6° (Epoch: 02 March)

Event Time Altitude Azimuth Distance (km) Brightness Sun altitude
Exits shadow 12:31:54 28° 11° (N) 1,222 ? -26.1°
Drops below altitude 10° 12:34:37 10° 39° (NE) 2,038 ? -25.7°
Sets 12:37:04 0° 49° (NE) 2,939 ? -25.3°
